TimeMDT,TemperatureF,Dew PointF,Humidity,Sea Level PressureIn,VisibilityMPH,Wind Direction,Wind SpeedMPH,Gust SpeedMPH,PrecipitationIn,Events,Conditions,WindDirDegrees,DateUTC
12:53 AM,59.0,36.0,42,29.96,10.0,SE,8.1,-,N/A,,Clear,130,2013-05-14 06:53:00
1:53 AM,57.9,36.0,44,29.95,10.0,SE,8.1,-,N/A,,Clear,130,2013-05-14 07:53:00
2:53 AM,57.0,35.1,44,29.94,10.0,SE,8.1,-,N/A,,Clear,130,2013-05-14 08:53:00
3:53 AM,55.9,34.0,44,29.94,10.0,ESE,9.2,-,N/A,,Clear,120,2013-05-14 09:53:00
4:53 AM,53.1,35.1,50,29.95,10.0,SE,3.5,-,N/A,,Clear,140,2013-05-14 10:53:00
5:53 AM,50.0,36.0,59,29.96,10.0,South,6.9,-,N/A,,Clear,180,2013-05-14 11:53:00
6:53 AM,53.1,36.0,52,29.96,10.0,SSE,5.8,-,N/A,,Clear,160,2013-05-14 12:53:00
7:53 AM,60.1,36.0,41,29.96,10.0,SE,4.6,-,N/A,,Clear,140,2013-05-14 13:53:00
8:53 AM,64.9,37.0,36,29.96,10.0,Calm,Calm,-,N/A,,Clear,0,2013-05-14 14:53:00
9:53 AM,71.1,37.0,29,29.93,10.0,Calm,Calm,-,N/A,,Clear,0,2013-05-14 15:53:00
10:53 AM,75.9,32.0,20,29.91,10.0,Calm,Calm,-,N/A,,Clear,0,2013-05-14 16:53:00
11:53 AM,79.0,30.9,17,29.87,10.0,South,3.5,-,N/A,,Clear,180,2013-05-14 17:53:00
12:53 PM,82.9,28.9,14,29.84,10.0,NNW,6.9,-,N/A,,Clear,340,2013-05-14 18:53:00
1:53 PM,82.9,26.1,13,29.81,10.0,Variable,5.8,-,N/A,,Clear,0,2013-05-14 19:53:00
2:53 PM,84.0,27.0,13,29.79,10.0,NNW,6.9,18.4,N/A,,Clear,330,2013-05-14 20:53:00
3:53 PM,84.9,30.0,14,29.78,10.0,NNW,19.6,27.6,N/A,,Partly Cloudy,340,2013-05-14 21:53:00
4:08 PM,82.4,30.2,15,30.01,10.0,North,19.6,24.2,N/A,,Mostly Cloudy,10,2013-05-14 22:08:00
4:32 PM,75.2,37.4,25,30.02,10.0,East,16.1,-,N/A,,Mostly Cloudy,100,2013-05-14 22:32:00
4:53 PM,75.9,37.0,24,29.81,10.0,East,12.7,-,N/A,,Partly Cloudy,100,2013-05-14 22:53:00
5:53 PM,73.0,39.9,30,29.84,10.0,SSW,15.0,21.9,N/A,,Partly Cloudy,200,2013-05-14 23:53:00
6:53 PM,72.0,41.0,33,29.85,10.0,ESE,5.8,-,N/A,,Clear,120,2013-05-15 00:53:00
7:53 PM,71.1,36.0,28,29.84,10.0,SSE,19.6,25.3,N/A,,Mostly Cloudy,160,2013-05-15 01:53:00
8:53 PM,69.1,37.9,32,29.86,10.0,ESE,16.1,-,N/A,,Partly Cloudy,120,2013-05-15 02:53:00
9:53 PM,68.0,39.0,35,29.85,10.0,ESE,13.8,21.9,N/A,,Clear,120,2013-05-15 03:53:00
10:53 PM,64.9,41.0,42,29.85,10.0,ESE,9.2,-,N/A,,Clear,110,2013-05-15 04:53:00
11:53 PM,63.0,41.0,45,29.84,10.0,SE,9.2,-,N/A,,Clear,140,2013-05-15 05:53:00